Miscellaneous Local Product
Issued by NWS Hastings, NE

Home | Current Version | Previous Version | Graphics & Text | Print | Product List | Glossary On
Versions: 1 2 3 4 5 6 7 8 9 10 11 12 13 14 15 16 17 18 19 20 21 22 23 24 25 26 27 28 29 30 31 32 33 34 35 36 37 38 39 40 41 42 43 44 45 46 47 48 49 50
000
AXUS43 KGID 270002
MISGRI

GID CWA HOURLY WEATHER ROUNDUP
NATIONAL WEATHER SERVICE HASTINGS NE
700 PM CDT WED APR 26 2017

NOTE: "FAIR" INDICATES FEW OR NO CLOUDS BELOW 12,000 FEET WITH NO
SIGNIFICANT WEATHER AND/OR OBSTRUCTIONS TO VISIBILITY.

...SOUTH CENTRAL NEBRASKA...

CITY           SKY/WX    TMP DP  RH WIND       PRES   REMARKS
GRAND ISLAND   PTSUNNY   43  31  62 NW18      29.70S
HASTINGS       MOSUNNY   45  30  55 NW14G24   29.70F
KEARNEY        SUNNY     46  28  49 N16       29.71S
ORD            CLOUDY    44  30  57 NW16      29.70F
YORK           CLOUDY    45  32  61 N13G21    29.68S
AURORA         CLOUDY    44  31  60 N18       29.69S
LEXINGTON      SUNNY     49  32  51 N10G17    29.70F
HOLDREGE       SUNNY     47  30  50 N13       29.70S
HEBRON         CLOUDY    47  32  55 NW15G22   29.67F

...NEBRASKA PANHANDLE...

CITY           SKY/WX    TMP DP  RH WIND       PRES   REMARKS
CHADRON        SUNNY     45  32  60 NE12      29.72R
ALLIANCE       SUNNY     48  31  51 NE12      29.68R
SCOTTSBLUFF    CLOUDY    52  38  58 NE18      29.68R
SIDNEY         MOSUNNY   52  36  54 SW12      29.67S

...WESTERN AND NORTH CENTRAL NEBRASKA...

CITY           SKY/WX    TMP DP  RH WIND       PRES   REMARKS
VALENTINE      MOSUNNY   44  27  51 N9G18     29.73S
AINSWORTH      PTSUNNY   40  30  68 NW12      29.72F WCI  33
ONEILL         CLOUDY    44  28  53 NW15      29.70F
BROKEN BOW     MOSUNNY   46  30  53 N15       29.70F
IMPERIAL       SUNNY     57  27  31 VRB6      29.68F
NORTH PLATTE   SUNNY     51  30  44 N10       29.71S
MCCOOK         SUNNY     56  29  35 N13       29.68F

...EASTERN NEBRASKA...

CITY           SKY/WX    TMP DP  RH WIND       PRES   REMARKS
NORFOLK        CLOUDY    41  30  65 NW14G23   29.67S
SO SIOUX CITY  CLOUDY    41  32  70 NW23G29   29.65S
TEKAMAH        CLOUDY    43  31  62 N17G25    29.66S
COLUMBUS       CLOUDY    43  30  61 NW17      29.68S
ALBION         CLOUDY    44  31  61 NW20G25   29.69S
OMAHA EPPLEY   CLOUDY    43  32  65 NW16      29.64F
OFFUTT AFB     CLOUDY    42  32  66 NW16G23   29.65S
MILLARD        CLOUDY    44  34  66 NW9G18    29.66S
LINCOLN        CLOUDY    46  33  60 N15G25    29.67F
NEBRASKA CITY  CLOUDY    43  30  60 N18G24    29.65R
BEATRICE       CLOUDY    46  35  65 N17       29.66S
FALLS CITY     CLOUDY    44  34  67 NW13G21   29.64R

...NORTHERN KANSAS...

CITY           SKY/WX    TMP DP  RH WIND       PRES   REMARKS
GOODLAND       SUNNY     57  28  33 N10       29.69S
HILL CITY      SUNNY     57  32  38 N8        29.69F
NORTON         CLEAR     54  28  37 N10       29.68S
PHILLIPSBURG   SUNNY     54  32  43 NW10G17   29.69S
SMITH CENTER   SUNNY     50  30  46 N14G20    29.70S
HAYS           SUNNY     55  34  45 N14       29.69F
RUSSELL        SUNNY     52  33  48 N16       29.68S
CONCORDIA      CLOUDY    49  36  61 N15       29.67S
SALINA         CLOUDY    53  37  54 N12       29.68S
TOPEKA         CLOUDY    49  38  65 NW12      29.63R



USA.gov is the U.S. government's official web portal to all federal, state and local government web resources and services.